Temp
81 78 77 75 73 68 66 65 62 61 61 60 59 57 55 55 55 54 55 54 53 53 52 51 51 50 50 49 49 48 46 47 48 44 44 48 52 48 48 53 53 53 55
78 77 74 73 70 66 65 64 62 61 62 62 62 61 58 57 55 54 53 53 52 52 52 50 50 50 48 48 47 45 43 44 45 40 40 38 45 44 45 49 50 49 50
76 75 71 69 68 64 63 64 62 61 62 63 62 60 57 54 52 52 51 51 52 51 50 50 49 48 48 45 45 44 43 40 42 43 37 33 32 36 43 45 46 46 46
78 76 70 68 67 65 65 64 63 62 63 61 59 56 55 53 54 52 52 50 51 50 50 49 48 47 47 45 44 46 42 41 37 39 42 41 39 33 32 40 42 43 44
78 75 69 68 68 65 64 63 62 62 61 61 59 57 56 55 54 52 50 49 49 49 49 48 47 46 46 45 44 43 42 41 37 35 38 39 38 40 33 30 35 39 42
77 75 71 69 67 66 63 62 61 61 60 59 59 57 54 53 51 49 48 49 50 48 47 49 46 46 45 44 43 43 43 40 37 37 38 36 34 33 33 31 33 34 39
76 73 68 66 65 63 61 61 61 60 59 58 58 55 53 52 50 49 49 49 49 47 45 46 44 44 44 44 44 43 42 40 37 35 37 38 37 37 36 33 33 33 37
73 71 67 66 64 62 61 59 59 58 57 55 55 54 53 53 52 50 49 49 48 45 45 44 44 44 44 43 43 42 40 40 38 35 37 37 37 37 37 34 32 31 35
70 70 68 64 62 61 58 57 58 57 56 55 53 52 52 50 49 48 48 46 46 46 44 44 43 43 42 42 42 40 38 39 37 35 34 36 36 37 38 37 36 34 30
68 66 65 63 62 61 57 56 58 56 54 52 51 51 50 49 48 47 45 44 43 43 43 42 42 41 41 41 40 38 38 37 35 36 34 34 36 36 36 35 36 36 34
66 65 64 63 62 60 57 56 56 53 51 50 50 48 47 45 44 43 43 42 42 42 41 41 40 39 39 38 37 37 36 35 34 34 33 32 35 33 34 35 35 35 34
66 64 57 59 58 55 54 53 52 50 49 50 48 44 43 43 42 41 42 42 41 42 41 40 40 39 38 37 36 35 35 33 32 32 31 30 34 29 32 32 32 34 35
66 64 59 51 41 50 49 51 49 46 46 47 43 41 41 41 40 40 41 41 40 39 39 38 37 37 37 36 36 35 34 32 32 31 29 28 28 26 28 29 29 32 36
64 62 57 53 53 49 41 38 45 42 42 41 40 39 39 38 39 40 41 40 41 40 38 37 37 36 35 36 36 36 34 33 32 32 30 28 26 24 25 26 26 29 33
62 61 56 52 51 45 43 42 40 37 37 35 36 35 37 39 40 40 40 41 40 40 41 39 39 36 33 32 31 34 33 33 32 32 31 30 31 33 30 26 24 25 27
61 60 57 51 48 44 43 42 40 37 38 34 34 34 35 35 38 39 39 39 38 34 34 36 34 31 33 33 34 34 31 31 31 30 29 29 30 31 32 30 30 28 23
61 59 57 51 49 44 44 41 39 38 37 34 33 33 34 34 35 39 36 33 32 32 31 31 30 27 26 32 34 34 29 27 25 26 27 28 29 29 30 30 29 28 28
62 59 58 53 51 47 46 43 41 39 36 34 32 32 32 33 32 32 31 31 31 30 30 29 29 27 26 32 33 33 30 25 23 21 20 20 19 22 27 26 24 22 22
61 58 59 57 53 49 47 44 41 40 38 36 33 33 32 31 30 29 30 30 30 30 29 30 29 26 25 31 30 32 28 24 20 19 18 17 16 28 30 18 16 16 17
54 55 55 55 51 48 47 43 41 41 39 38 36 35 34 32 30 30 30 30 31 30 30 30 31 31 24 30 30 30 31 28 26 24 21 27 21 27 27 19 17 14 14
37 51 51 50 46 46 46 40 38 37 38 38 38 35 35 33 32 32 32 31 31 31 30 30 30 30 27 25 30 30 30 27 29 26 21 18 26 27 27 25 16 15 20
39 36 37 37 38 40 40 36 36 35 36 36 34 33 33 33 33 32 32 33 32 30 29 28 29 30 30 29 29 29 30 29 27 26 21 18 25 26 26 22 28 29 23
41 39 35 35 35 37 37 36 34 35 35 34 32 32 33 32 33 32 32 32 33 31 30 30 28 28 29 27 28 28 28 28 26 21 23 24 24 25 24 27 28 21 19
43 38 37 35 34 35 37 35 34 35 34 32 32 32 31 32 32 33 33 33 32 31 31 31 30 28 27 25 23 22 22 23 20 18 18 17 21 18 18 20 22 18 17
44 41 39 36 35 35 33 34 34 35 33 32 32 32 32 32 31 32 32 33 32 34 32 31 30 29 27 27 28 26 23 22 24 20 19 17 19 20 20 19 19 18 19
44 43 40 38 37 35 34 35 37 37 34 32 32 32 31 31 32 32 30 34 33 34 34 35 34 28 33 33 32 30 29 28 26 20 19 17 17 17 18 17 16 15 15
MSLP
1001.38 1003.29 1004.80 1006.03 1007.37 1008.89 1010.34 1011.60 1012.86 1013.68 1014.19 1014.76 1015.44 1016.15 1016.60 1017.08 1017.81 1018.37 1018.63 1018.94 1019.04 1019.22 1019.34 1019.57 1019.85 1019.89 1020.09 1020.22 1020.49 1020.58 1020.63 1020.13 1019.92 1019.11 1018.02 1016.66 1016.11 1016.26 1016.61 1015.95 1016.01 1016.09 1015.77
1000.06 1002.22 1004.23 1005.67 1007.15 1008.53 1009.77 1011.29 1012.38 1013.39 1013.86 1014.21 1014.76 1015.36 1016.10 1016.84 1017.54 1018.17 1018.64 1018.92 1019.21 1019.46 1019.59 1019.99 1020.07 1020.28 1020.45 1020.60 1020.88 1021.23 1021.28 1020.89 1020.67 1020.61 1019.55 1018.38 1017.04 1016.80 1017.04 1016.91 1016.88 1016.81 1016.71
999.25 1000.80 1002.99 1005.02 1006.82 1008.38 1009.46 1010.71 1011.89 1012.93 1013.32 1013.42 1014.06 1015.04 1015.99 1016.82 1017.51 1018.07 1018.59 1019.10 1019.37 1019.57 1019.98 1020.22 1020.38 1020.61 1020.62 1021.03 1021.36 1021.61 1021.75 1021.65 1021.49 1021.32 1021.53 1020.79 1020.33 1019.68 1018.02 1017.62 1017.49 1017.52 1017.23
997.95 999.89 1001.95 1003.96 1006.06 1008.09 1009.53 1010.63 1011.60 1012.51 1012.73 1012.92 1013.68 1014.62 1015.43 1016.14 1016.82 1017.37 1018.35 1019.10 1019.31 1019.80 1020.26 1020.40 1020.64 1020.90 1020.93 1021.45 1021.64 1021.84 1022.06 1022.09 1022.13 1022.11 1022.57 1022.67 1022.24 1021.39 1019.53 1018.67 1018.63 1018.51 1017.79
996.21 998.49 1000.77 1002.76 1004.78 1006.93 1009.08 1010.52 1011.54 1012.24 1012.40 1012.89 1013.52 1014.24 1014.73 1015.63 1016.41 1017.46 1018.19 1018.90 1019.53 1020.06 1020.40 1020.56 1020.79 1021.02 1021.28 1021.57 1021.88 1022.06 1022.22 1022.27 1022.79 1023.00 1022.99 1022.80 1022.46 1022.10 1021.84 1019.69 1019.22 1019.05 1018.12
995.05 997.05 999.61 1001.71 1003.92 1005.81 1008.10 1010.05 1011.31 1011.98 1012.43 1012.87 1013.34 1013.70 1014.46 1015.51 1016.58 1017.52 1018.11 1018.69 1019.43 1020.16 1020.47 1020.66 1020.91 1021.10 1021.49 1021.84 1021.93 1022.00 1022.17 1022.46 1023.04 1023.18 1023.36 1023.03 1023.01 1022.54 1022.20 1021.40 1020.62 1019.66 1018.16
994.14 996.19 999.02 1001.15 1003.19 1004.88 1006.92 1009.19 1010.75 1011.62 1012.40 1012.73 1013.14 1013.61 1014.38 1015.40 1016.37 1017.12 1017.81 1018.60 1019.41 1019.94 1020.68 1020.96 1021.24 1021.56 1021.61 1021.82 1022.03 1022.16 1022.22 1022.68 1022.80 1023.22 1023.27 1023.07 1022.85 1022.64 1022.53 1022.08 1021.07 1020.17 1018.86
994.18 995.93 998.55 1000.64 1002.67 1004.62 1006.10 1008.34 1010.17 1011.30 1012.21 1012.97 1013.34 1013.84 1014.67 1015.48 1016.40 1016.99 1017.87 1018.60 1019.39 1020.04 1020.70 1021.08 1021.42 1021.80 1021.89 1022.01 1022.00 1022.20 1022.70 1022.65 1022.79 1023.04 1023.18 1023.16 1022.77 1022.69 1022.53 1022.21 1021.57 1020.25 1019.34
995.14 996.58 998.82 1000.90 1002.72 1004.42 1006.22 1008.03 1009.96 1011.41 1012.48 1013.34 1013.89 1014.39 1014.97 1015.68 1016.52 1017.40 1018.24 1019.04 1019.66 1020.46 1021.00 1021.19 1021.71 1022.01 1022.17 1022.19 1022.01 1022.45 1022.85 1022.90 1022.93 1023.01 1023.11 1023.06 1022.85 1022.83 1022.57 1022.16 1021.78 1021.13 1020.02
996.07 997.44 999.32 1001.09 1002.81 1004.32 1006.06 1007.96 1009.64 1011.32 1012.63 1013.76 1014.29 1014.66 1015.27 1016.15 1017.03 1017.89 1018.53 1019.32 1020.10 1020.77 1021.00 1021.43 1021.97 1022.39 1022.33 1022.44 1022.56 1022.73 1023.13 1023.16 1023.13 1023.15 1023.05 1023.03 1023.27 1023.11 1022.66 1022.28 1021.79 1021.25 1020.79
996.90 998.12 999.89 1001.44 1003.17 1004.95 1006.42 1007.82 1009.35 1011.13 1012.66 1013.98 1014.57 1014.91 1015.64 1016.57 1017.48 1018.06 1018.86 1019.50 1020.64 1020.99 1021.22 1021.84 1022.26 1022.57 1022.78 1022.93 1022.93 1022.97 1023.30 1023.43 1023.46 1023.35 1023.28 1023.55 1023.67 1023.43 1022.96 1022.49 1021.94 1021.34 1021.02
997.61 998.89 1000.27 1002.04 1003.76 1005.46 1007.12 1008.46 1009.70 1011.27 1012.96 1014.12 1014.91 1015.48 1016.20 1017.06 1017.98 1018.22 1018.94 1020.12 1020.68 1020.98 1021.67 1021.94 1022.17 1022.77 1023.05 1023.08 1023.12 1023.37 1023.57 1023.73 1023.67 1023.79 1023.95 1024.19 1024.07 1023.78 1023.40 1022.92 1022.27 1021.56 1021.07
998.97 999.88 1001.42 1003.09 1004.74 1006.27 1007.89 1009.24 1010.41 1011.63 1013.07 1014.54 1015.58 1016.06 1016.64 1017.51 1017.89 1018.13 1019.36 1020.20 1020.76 1021.32 1021.80 1022.16 1022.49 1023.04 1023.15 1023.10 1023.31 1023.56 1023.80 1023.99 1023.88 1024.21 1024.52 1024.65 1024.68 1024.41 1023.83 1023.44 1022.86 1021.95 1021.30
999.75 1000.41 1001.98 1003.91 1005.16 1006.85 1008.47 1009.96 1011.24 1012.21 1013.40 1014.74 1015.89 1016.42 1017.11 1017.28 1018.00 1018.76 1019.57 1020.19 1020.66 1021.07 1021.74 1022.37 1022.81 1023.20 1023.13 1023.36 1023.48 1023.64 1023.77 1024.05 1024.31 1024.48 1024.77 1025.03 1025.08 1024.84 1024.41 1024.01 1023.56 1022.63 1021.85
1000.00 1000.68 1002.25 1003.93 1005.03 1006.90 1008.69 1010.18 1011.67 1012.73 1013.72 1015.19 1016.19 1016.87 1017.26 1017.47 1018.48 1019.07 1019.64 1020.18 1020.38 1020.96 1021.81 1022.24 1022.56 1023.07 1023.56 1024.06 1023.85 1023.70 1023.99 1024.19 1024.46 1024.74 1024.91 1025.20 1025.26 1024.91 1024.81 1024.59 1024.32 1023.60 1023.04
999.80 1000.67 1002.14 1004.02 1005.59 1007.09 1008.38 1009.41 1011.30 1013.26 1014.29 1014.98 1016.13 1016.92 1017.26 1017.96 1018.68 1019.06 1019.47 1019.97 1020.68 1021.30 1021.81 1022.07 1022.67 1023.29 1024.15 1024.26 1023.94 1024.00 1024.43 1024.63 1024.86 1025.12 1025.38 1025.44 1025.57 1025.24 1025.17 1025.16 1025.00 1024.71 1024.24
998.97 1000.16 1001.70 1003.46 1004.95 1006.91 1008.40 1009.64 1010.76 1012.53 1014.56 1015.55 1016.42 1017.16 1017.73 1018.25 1018.65 1018.88 1019.49 1020.55 1021.22 1021.95 1022.28 1022.63 1023.28 1023.98 1024.52 1024.33 1024.45 1024.60 1025.05 1025.37 1025.64 1025.86 1026.02 1026.14 1026.06 1025.57 1025.34 1025.48 1025.68 1025.53 1025.16
998.55 999.52 1001.10 1003.00 1004.68 1006.55 1008.18 1009.63 1011.12 1012.38 1014.11 1015.41 1016.38 1017.10 1017.79 1018.28 1018.69 1019.11 1019.88 1020.89 1021.75 1022.15 1022.49 1023.03 1023.54 1024.17 1024.46 1024.65 1024.74 1024.96 1025.43 1025.78 1026.17 1026.51 1026.74 1026.85 1026.70 1026.37 1026.02 1025.99 1026.02 1026.03 1025.91
998.17 999.14 1000.65 1002.31 1004.04 1005.88 1007.72 1009.33 1010.70 1012.06 1013.35 1014.70 1016.08 1016.80 1017.54 1017.91 1018.51 1019.17 1020.15 1021.11 1021.73 1022.17 1022.67 1023.08 1023.43 1024.13 1024.65 1025.00 1025.19 1025.06 1025.48 1026.04 1026.61 1027.09 1027.07 1027.24 1027.08 1026.44 1026.06 1026.36 1026.45 1026.36 1026.21
998.94 999.59 1000.73 1002.30 1003.66 1005.42 1007.30 1009.03 1010.15 1011.26 1012.73 1014.19 1015.30 1016.39 1017.26 1017.62 1018.50 1019.27 1020.17 1020.83 1021.50 1022.09 1022.57 1023.09 1023.51 1024.02 1024.77 1025.05 1025.27 1025.22 1025.28 1025.77 1026.40 1027.01 1027.13 1026.94 1027.17 1026.80 1026.65 1026.69 1026.59 1026.63 1026.38
1000.62 1000.63 1001.23 1002.24 1003.45 1005.03 1007.04 1008.68 1009.89 1010.88 1011.92 1013.51 1014.87 1016.20 1016.82 1017.51 1018.35 1019.31 1019.98 1020.62 1021.35 1021.86 1022.49 1023.15 1023.66 1024.17 1024.75 1025.21 1025.27 1025.11 1024.83 1025.30 1025.84 1026.47 1027.21 1027.63 1027.25 1027.12 1027.05 1027.09 1027.01 1026.66 1026.32
1001.25 1001.59 1002.51 1003.41 1004.47 1005.37 1006.23 1008.08 1009.98 1011.18 1012.14 1013.27 1014.60 1015.92 1016.79 1017.45 1017.93 1018.93 1019.54 1020.17 1020.74 1021.54 1022.31 1023.00 1023.60 1024.09 1024.59 1025.05 1025.26 1025.34 1025.07 1025.38 1025.68 1026.39 1027.25 1027.76 1027.49 1027.51 1027.44 1027.47 1026.86 1026.42 1026.39
1002.44 1003.01 1003.11 1004.47 1005.57 1006.18 1007.26 1008.37 1009.41 1010.63 1011.74 1013.26 1014.49 1015.47 1016.49 1017.17 1017.78 1018.52 1018.97 1019.56 1020.09 1020.79 1021.60 1022.33 1022.97 1023.53 1024.56 1025.02 1025.31 1025.61 1025.59 1025.67 1026.07 1026.86 1027.24 1027.56 1027.65 1027.66 1027.60 1027.34 1027.07 1027.15 1027.11
1002.36 1003.87 1004.58 1004.91 1006.25 1007.04 1007.92 1009.26 1009.98 1011.32 1011.27 1012.81 1014.37 1015.62 1016.29 1017.04 1017.82 1018.24 1018.69 1019.08 1019.62 1020.29 1020.86 1021.49 1022.19 1023.04 1024.02 1024.82 1025.44 1025.92 1026.08 1026.18 1026.74 1027.34 1027.64 1027.72 1027.50 1027.48 1027.59 1027.59 1027.41 1027.59 1027.59
1002.63 1003.66 1004.83 1005.84 1006.57 1007.58 1008.53 1009.46 1010.60 1011.24 1012.00 1012.95 1014.32 1015.56 1016.34 1017.03 1017.69 1018.16 1018.58 1019.03 1019.53 1019.97 1020.28 1020.86 1021.55 1022.34 1023.12 1023.76 1024.33 1025.06 1025.53 1025.88 1026.24 1026.86 1027.43 1027.60 1027.55 1027.44 1027.31 1027.50 1027.65 1027.92 1027.82
1002.74 1003.83 1004.62 1005.91 1007.02 1008.06 1008.86 1009.73 1010.54 1011.13 1011.79 1013.07 1014.32 1015.23 1016.04 1016.77 1017.41 1017.90 1018.76 1019.11 1019.64 1020.17 1020.52 1020.71 1021.16 1021.91 1022.24 1022.77 1023.58 1024.41 1025.11 1025.62 1026.05 1026.58 1026.75 1026.95 1027.06 1027.21 1027.45 1027.65 1027.85 1028.03 1028.27
Wind_Speed
18 20 18 15 17 18 18 17 15 13 11 10 9 8 7 5 6 5 6 6 6 5 6 4 4 5 5 5 6 6 8 5 9 5 6 5 7 9 11 7 8 12 12
20 20 19 17 17 19 19 17 16 15 12 9 8 8 7 6 6 6 5 6 6 5 7 5 5 5 4 6 6 7 4 4 7 7 5 6 5 12 9 8 8 12 11
22 23 23 20 16 18 18 17 17 16 12 12 8 8 8 5 5 6 6 4 6 6 6 6 5 5 4 5 5 5 7 5 5 7 4 5 4 11 4 9 10 13 12
20 23 24 23 20 16 15 16 16 16 11 11 10 12 9 8 6 5 8 5 6 7 6 5 5 5 4 5 5 5 3 4 5 4 7 5 5 5 8 5 10 14 13
18 26 27 25 22 19 16 13 15 15 10 10 11 9 7 9 7 7 6 9 6 6 6 5 5 5 4 5 5 4 4 4 4 4 5 5 4 4 5 10 13 10 10
22 26 27 26 23 20 17 14 15 14 12 9 12 8 13 11 9 7 6 5 5 5 5 5 4 5 5 4 3 3 5 6 4 4 5 4 3 6 5 8 12 13 10
23 22 28 25 23 23 21 16 17 15 13 9 10 9 10 10 10 8 6 6 5 4 5 4 5 4 4 4 3 3 5 3 4 5 5 3 4 4 5 6 8 9 10
13 21 26 24 24 23 23 19 17 14 13 8 9 10 9 6 7 6 6 4 5 6 6 5 5 4 5 3 3 4 3 4 3 6 5 4 4 5 5 5 8 9 5
9 16 22 20 21 20 20 19 16 14 13 10 9 11 8 9 8 8 8 5 7 6 5 5 6 5 4 4 4 5 4 4 4 5 4 5 6 5 5 5 5 5 5
10 11 17 19 18 19 20 19 16 16 13 10 10 9 11 11 10 6 9 8 6 6 5 6 6 4 5 5 5 5 4 5 4 4 5 6 6 6 5 6 5 5 4
6 10 14 17 18 18 19 18 16 17 14 12 11 11 10 10 8 9 8 9 6 6 6 6 5 5 5 4 4 5 5 5 5 6 7 8 8 6 6 6 6 4 4
6 9 9 15 15 17 16 15 15 16 12 11 11 11 12 10 9 9 9 7 6 6 6 5 6 5 4 5 5 6 5 5 6 7 8 8 7 8 8 6 9 6 3
7 10 11 11 10 14 14 12 13 14 12 11 11 12 12 11 10 10 8 7 7 6 6 6 6 5 4 5 5 6 5 6 6 6 7 8 8 9 8 8 8 7 6
8 12 12 11 14 14 12 9 13 12 12 12 12 11 11 12 10 10 9 8 8 8 7 7 6 5 5 5 4 5 5 6 5 6 6 5 6 6 8 8 9 9 5
6 10 14 11 17 17 14 14 13 11 11 8 10 9 10 11 11 10 9 9 7 7 8 9 8 9 7 5 5 6 5 5 6 6 6 5 7 15 15 7 9 10 7
11 13 15 16 15 15 16 17 17 12 13 13 12 11 11 9 10 10 8 8 7 8 3 7 9 10 6 8 12 8 6 7 6 5 6 5 9 9 14 17 19 16 9
11 11 15 18 17 17 16 16 17 14 13 11 10 10 11 10 10 9 9 8 8 7 7 9 10 8 4 11 10 12 6 5 5 6 6 6 6 9 5 11 14 16 18
12 14 13 17 17 18 17 16 15 16 14 13 12 11 11 10 7 11 11 9 8 7 7 7 8 8 5 10 11 11 6 6 6 5 4 4 4 5 6 5 4 4 3
6 11 13 13 19 19 18 17 17 16 15 15 14 13 12 12 11 11 11 10 8 6 7 6 7 8 5 8 4 3 6 6 6 4 4 4 4 8 7 3 4 4 4
3 13 14 14 17 18 19 18 19 18 16 16 14 13 12 12 11 12 11 10 8 7 6 6 6 10 5 6 3 1 4 6 6 7 6 11 7 11 9 5 3 3 2
5 5 13 16 16 19 19 15 15 17 14 15 15 14 13 13 13 12 11 11 10 9 8 7 6 7 7 4 3 2 1 3 5 5 5 3 9 9 9 8 2 2 3
5 5 10 9 9 12 16 17 13 9 13 14 14 13 12 11 11 13 12 11 10 10 9 8 7 5 7 9 4 4 8 7 3 6 6 4 8 9 8 5 6 6 3
6 4 12 12 8 10 11 14 13 16 17 14 12 13 11 11 11 11 12 10 10 8 8 8 7 7 7 5 9 6 5 9 7 5 8 7 3 2 4 6 8 6 4
10 9 10 13 11 11 12 11 13 14 18 17 15 11 12 11 10 7 7 7 7 7 7 7 6 8 8 7 5 3 4 8 7 5 4 3 2 1 3 3 3 1 2
9 10 10 10 12 12 13 14 14 15 15 15 14 12 10 11 10 7 6 5 4 5 6 5 5 8 7 8 13 10 6 4 6 5 3 3 4 4 3 2 2 3 3
10 10 12 13 13 13 13 13 14 15 16 14 12 11 10 9 9 8 6 5 12 10 9 8 7 3 8 17 17 15 12 13 8 2 3 2 1 1 2 2 3 3 3
Wind_Direction
184 175 191 168 162 148 156 165 167 157 156 158 158 155 148 130 110 106 107 89 70 47 49 40 52 26 28 38 15 15 347 351 2 338 322 301 328 47 353 345 19 6 6
180 175 165 167 167 159 162 166 164 167 173 170 163 160 138 135 127 114 92 86 81 56 77 45 44 34 8 45 20 26 344 351 26 347 311 349 313 11 331 359 19 354 357
182 175 167 170 169 164 167 170 165 172 187 172 133 122 102 108 124 140 125 97 90 76 62 58 47 28 34 45 31 28 14 353 13 18 24 346 336 336 337 331 3 358 347
182 178 167 167 171 163 167 170 167 176 189 147 142 145 151 157 155 130 120 112 93 77 67 60 53 49 41 48 29 27 14 17 13 4 24 11 331 335 318 350 323 350 330
188 178 170 168 167 157 168 172 168 181 159 155 154 168 146 118 114 109 129 116 103 95 84 69 64 57 52 49 60 5 34 58 40 26 359 2 325 302 326 312 327 325 322
190 173 168 164 167 158 160 170 170 180 158 181 158 175 133 131 127 134 136 143 133 127 86 89 75 72 47 42 30 14 44 73 67 36 8 4 345 322 324 308 314 318 327
184 164 163 169 166 161 158 168 173 172 169 174 152 127 120 125 134 147 134 129 132 117 96 78 62 57 63 38 10 57 45 55 91 82 14 343 335 328 314 302 305 314 318
166 158 163 166 163 164 160 162 172 166 165 152 137 122 121 126 129 111 107 99 103 96 98 94 88 66 56 32 327 71 23 26 49 84 29 355 354 337 313 304 314 317 328
140 161 156 162 161 160 156 155 168 155 156 154 139 129 132 117 113 101 102 84 97 110 110 98 94 79 66 37 355 80 24 20 26 72 43 17 2 337 332 323 305 310 318
132 134 144 156 161 157 150 153 159 155 149 142 140 137 124 114 115 122 111 108 89 95 115 99 90 91 69 43 44 65 32 36 23 51 27 38 6 350 351 336 314 311 319
128 144 147 157 156 149 153 156 151 147 146 151 151 133 122 117 112 108 111 104 126 125 110 117 118 96 91 68 69 89 57 45 46 43 33 28 22 1 349 342 337 329 326
110 128 113 146 145 147 151 152 140 143 144 151 140 126 119 118 127 118 113 134 134 116 116 123 108 106 106 95 79 70 70 52 51 47 40 30 16 12 357 352 346 341 330
136 126 123 128 130 134 142 145 138 135 137 138 137 135 131 138 133 120 130 135 128 128 125 97 92 103 104 89 94 97 81 71 52 66 57 39 20 17 4 3 352 341 360
159 145 133 131 138 137 136 125 132 133 136 137 148 140 146 136 133 135 142 147 153 142 124 127 127 120 75 90 83 83 100 98 80 86 68 67 36 29 18 16 0 346 13
195 157 154 150 148 144 144 129 126 123 122 130 145 146 143 130 142 144 149 157 143 133 151 157 146 116 86 38 3 78 77 71 82 70 81 56 61 55 48 38 18 10 23
180 176 163 156 151 148 149 139 145 144 149 145 147 145 139 144 151 155 147 130 116 71 62 97 84 75 82 77 52 88 61 40 57 63 62 54 25 76 60 53 47 45 33
178 179 173 166 159 158 159 152 149 143 148 141 144 144 144 153 156 149 116 105 111 108 91 90 93 94 99 92 85 87 78 76 60 48 41 48 27 13 51 62 56 49 54
183 172 167 160 164 161 167 149 150 152 151 153 152 153 155 150 126 118 121 119 123 132 120 123 126 117 107 111 110 106 98 80 63 52 64 67 16 19 36 46 59 69 52
168 156 163 162 161 159 165 159 159 161 161 161 165 162 160 147 135 128 133 135 140 145 140 145 133 124 121 142 135 139 122 114 104 72 67 58 28 38 69 78 52 14 357
122 146 153 158 154 158 163 167 166 167 170 168 165 157 159 147 140 139 143 143 145 134 127 134 127 136 131 163 180 354 153 147 140 136 94 63 62 55 52 26 30 46 329
15 176 157 165 160 155 164 163 168 171 157 149 151 160 159 152 149 145 148 151 151 144 139 141 142 139 140 158 162 7 12 146 149 130 98 62 63 62 62 64 31 324 324
43 61 116 125 137 146 147 143 142 137 137 143 143 148 160 151 152 160 155 162 156 153 151 154 162 160 150 146 132 76 67 21 111 110 109 105 79 67 62 42 30 10 357
98 91 125 117 108 119 135 148 138 140 138 137 145 150 151 153 156 163 159 162 160 159 168 168 173 163 152 131 133 114 94 32 85 80 111 128 148 222 78 50 41 16 358
137 129 130 126 120 122 126 129 142 148 138 139 141 145 144 148 153 155 161 163 160 164 174 169 171 146 151 151 151 136 111 106 91 112 145 197 204 200 196 219 73 84 2
130 151 144 137 129 125 124 138 146 147 138 134 141 147 148 150 151 154 164 162 156 168 172 158 164 157 167 169 165 162 166 179 153 149 154 202 214 207 180 125 99 22 18
144 155 145 144 144 134 140 146 153 150 140 142 151 157 155 157 161 159 140 56 119 101 80 99 123 62 137 156 158 144 128 131 140 175 202 141 139 106 130 119 116 69 44